CW0237 Weather Reports


time (UTC)temp
F
wind
direction
speed
knots
gust
knots
rain 1hr
in
rain 24hr
in
rain mn
in
humidity
%
barometer
mb
20260507035704 59 219 0.9 2.6 0.00 0.06 0.06 93 1005.3
20260507035204 59 219 1.7 5.2 0.00 0.06 0.06 93 1005.3
20260507034705 59 197 1.7 6.1 0.00 0.06 0.06 93 1005.3
20260507034205 59 186 0.9 2.6 0.00 0.06 0.06 93 1005.4
20260507032204 59 171 1.7 5.2 0.00 0.06 0.06 94 1005.2
20260507031704 59 174 1.7 4.3 0.00 0.06 0.06 94 1005.1
20260507031204 59 175 3.5 7.8 0.00 0.06 0.06 94 1005.0
20260507030204 59 171 1.7 4.3 0.00 0.06 0.06 94 1005.1
20260507025704 59 171 2.6 6.1 0.00 0.06 0.06 94 1005.1
20260507025203 59 171 0.9 2.6 0.00 0.06 0.06 94 1005.1
20260507024704 59 171 1.7 5.2 0.00 0.06 0.06 94 1005.1
20260507024207 59 169 1.7 5.2 0.00 0.06 0.06 93 1004.9
20260507023703 59 171 1.7 5.2 0.00 0.06 0.06 93 1004.8
20260507023204 59 171 2.6 6.1 0.00 0.06 0.06 93 1004.9
20260507022705 59 171 1.7 4.3 0.00 0.06 0.06 93 1004.9
20260507021707 59 171 0.9 4.3 0.00 0.06 0.06 93 1005.0
20260507020204 59 171 2.6 4.3 0.00 0.06 0.06 93 1005.0
20260507015704 58 171 1.7 7.0 0.00 0.06 0.06 93 1004.9
20260507014205 58 171 2.6 6.1 0.00 0.06 0.06 93 1005.1
20260507012204 58 178 1.7 5.2 0.00 0.06 0.06 93 1005.2
20260507011704 58 178 1.7 7.8 0.00 0.06 0.06 93 1005.3
20260507010204 58 180 1.7 4.3 0.00 0.06 0.06 93 1005.4
20260507002703 58 190 2.6 6.1 0.01 0.06 0.06 92 1005.3
20260507001204 58 181 2.6 6.1 0.01 0.06 0.06 92 1005.1
20260507000208 58 184 1.7 6.1 0.01 0.06 0.06 92 1005.1
20260506234204 58 173 1.7 6.1 0.01 0.06 0.06 92 1005.0
20260506233703 58 173 0.9 2.6 0.01 0.06 0.06 92 1005.0
20260506233204 58 173 1.7 5.2 0.00 0.05 0.05 92 1005.0
20260506232204 59 196 1.7 6.1 0.00 0.05 0.05 92 1005.0
20260506231704 59 183 1.7 4.3 0.00 0.05 0.05 92 1005.0
20260506230204 59 185 1.7 6.1 0.00 0.05 0.05 92 1005.1
20260506225703 59 190 1.7 4.3 0.00 0.05 0.05 92 1005.1
20260506225203 59 191 1.7 7.0 0.01 0.05 0.05 92 1005.1
20260506224705 59 171 2.6 7.8 0.01 0.05 0.05 92 1005.1
20260506224204 59 179 1.7 4.3 0.01 0.05 0.05 92 1005.1
20260506223704 59 179 1.7 10.4 0.01 0.05 0.05 92 1005.0
20260506220704 60 183 4.3 8.7 0.01 0.05 0.05 91 1005.3
20260506212705 60 186 0.9 5.2 0.02 0.04 0.04 90 1005.7
20260506211703 60 178 1.7 6.1 0.02 0.04 0.04 90 1005.7
20260506211206 60 178 2.6 7.8 0.02 0.04 0.04 90 1005.8
20260506210704 60 183 2.6 7.8 0.02 0.04 0.04 90 1005.7
20260506210203 60 192 2.6 7.8 0.02 0.04 0.04 89 1005.7
20260506204704 61 189 2.6 7.8 0.02 0.03 0.03 89 1005.8
20260506204204 61 176 2.6 6.1 0.02 0.03 0.03 89 1005.9
20260506203704 61 183 2.6 6.1 0.01 0.02 0.02 89 1005.9
20260506203204 61 1 2.6 7.8 0.01 0.02 0.02 88 1005.9
20260506202706 61 180 3.5 8.7 0.01 0.02 0.02 88 1006.0
20260506200204 62 0 3.5 7.8 0.02 0.02 0.02 87 1006.1
20260506193705 63 355 3.5 7.8 0.01 0.01 0.01 84 1006.1
20260506191704 65 0 4.3 12.2 0.00 0.00 0.00 81 1006.2
20260506190704 66 0 3.5 7.8 0.00 0.00 0.00 78 1006.2
20260506190206 66 354 4.3 10.4 0.00 0.00 0.00 77 1006.3
20260506185203 67 165 5.2 11.3 0.00 0.00 0.00 74 1006.3
20260506184704 68 208 5.2 10.4 0.00 0.00 0.00 73 1006.3
20260506184203 68 202 1.7 7.0 0.00 0.00 0.00 73 1006.3
20260506182203 69 14 2.6 12.2 0.00 0.00 0.00 70 1006.5
20260506180204 71 180 4.3 10.4 0.00 0.00 0.00 68 1006.6
20260506175704 71 304 3.5 7.0 0.00 0.00 0.00 67 1006.6
20260506173704 71 0 5.2 15.6 0.00 0.00 0.00 66 1006.7
20260506173204 72 0 5.2 11.3 0.00 0.00 0.00 65 1006.8
20260506172705 72 0 4.3 11.3 0.00 0.00 0.00 65 1006.8
20260506171204 72 188 6.1 13.0 0.00 0.00 0.00 64 1006.8
20260506170703 72 193 5.2 20.9 0.00 0.00 0.00 64 1006.8
20260506165205 73 184 4.3 13.9 0.00 0.00 0.00 64 1006.8
20260506164203 72 0 6.1 19.1 0.00 0.00 0.00 65 1006.9
20260506163205 72 0 4.3 14.8 0.00 0.00 0.00 66 1007.1
20260506162703 72 0 4.3 10.4 0.00 0.00 0.00 65 1007.2
20260506162205 72 0 7.0 13.9 0.00 0.00 0.00 65 1007.2
20260506161208 72 243 4.3 17.4 0.00 0.00 0.00 64 1007.3
20260506160204 73 199 4.3 12.2 0.00 0.00 0.00 64 1007.6
20260506154205 72 182 4.3 10.4 0.00 0.00 0.00 66 1008.0
20260506153204 72 0 5.2 17.4 0.00 0.00 0.00 65 1008.0
20260506152706 72 335 4.3 8.7 0.00 0.00 0.00 66 1008.1
20260506152204 72 185 5.2 13.0 0.00 0.00 0.00 67 1008.1
20260506151704 71 0 2.6 13.9 0.00 0.00 0.00 68 1008.1
20260506151204 71 356 5.2 12.2 0.00 0.00 0.00 68 1008.2
20260506145204 71 352 1.7 10.4 0.00 0.00 0.00 69 1008.2
20260506144704 71 354 4.3 8.7 0.00 0.00 0.00 68 1008.3
20260506144205 71 353 5.2 10.4 0.00 0.00 0.00 69 1008.4
20260506143704 70 193 5.2 8.7 0.00 0.00 0.00 68 1008.3
20260506142703 70 138 4.3 7.8 0.00 0.00 0.00 68 1008.1
20260506142205 70 182 4.3 8.7 0.00 0.00 0.00 69 1008.1
20260506141705 70 330 4.3 11.3 0.00 0.00 0.00 69 1008.2
20260506141204 70 194 6.1 14.8 0.00 0.00 0.00 70 1008.2
20260506140204 70 215 2.6 13.9 0.00 0.00 0.00 71 1008.1
20260506135203 69 187 2.6 7.0 0.00 0.00 0.00 72 1008.1
20260506134704 69 1 1.7 13.9 0.00 0.00 0.00 72 1008.0
20260506133206 68 357 4.3 10.4 0.00 0.00 0.00 75 1008.5
20260506132705 67 198 2.6 6.1 0.00 0.00 0.00 76 1008.6
20260506132204 67 190 2.6 8.7 0.00 0.00 0.00 77 1008.7
20260506131705 67 179 2.6 6.1 0.00 0.00 0.00 77 1008.7
20260506131204 66 140 2.6 7.8 0.00 0.00 0.00 78 1008.8
20260506130705 66 174 2.6 7.0 0.00 0.00 0.00 78 1008.7
20260506125704 65 219 4.3 10.4 0.00 0.00 0.00 80 1008.8
20260506125204 64 186 1.7 4.3 0.00 0.00 0.00 81 1008.8
20260506124704 64 192 1.7 7.8 0.00 0.00 0.00 81 1008.8
20260506124203 64 166 5.2 13.9 0.00 0.00 0.00 82 1008.8
20260506122704 63 197 1.7 6.1 0.00 0.00 0.00 83 1008.9
20260506122204 62 192 2.6 7.8 0.00 0.00 0.00 84 1009.0
20260506121205 62 194 1.7 5.2 0.00 0.00 0.00 85 1008.8
20260506120704 61 189 1.7 5.2 0.00 0.00 0.00 85 1008.7
20260506115704 61 190 2.6 5.2 0.00 0.00 0.00 86 1009.2
20260506115204 61 190 2.6 5.2 0.00 0.00 0.00 86 1009.1
20260506112704 60 191 2.6 4.3 0.00 0.00 0.00 86 1009.3
20260506112205 60 191 1.7 5.2 0.00 0.00 0.00 86 1009.3
20260506111704 60 192 2.6 6.1 0.00 0.00 0.00 87 1009.2
20260506110204 60 196 1.7 7.8 0.00 0.00 0.00 87 1009.1
20260506105703 59 186 2.6 6.1 0.00 0.00 0.00 87 1009.2
20260506105204 59 195 2.6 7.0 0.00 0.00 0.00 87 1009.2
20260506104704 59 202 1.7 2.6 0.00 0.00 0.00 86 1009.2
20260506104204 59 202 2.6 10.4 0.00 0.00 0.00 86 1009.2
20260506103705 59 163 3.5 5.2 0.00 0.00 0.00 86 1009.2
20260506103205 59 168 2.6 7.0 0.00 0.00 0.00 86 1009.3
20260506102204 59 173 2.6 5.2 0.00 0.00 0.00 86 1009.2
20260506101707 59 173 2.6 7.0 0.00 0.00 0.00 86 1009.2
20260506095204 60 24 2.6 7.0 0.00 0.00 0.00 85 1009.0
20260506094205 60 171 1.7 4.3 0.00 0.00 0.00 85 1008.9
20260506093704 60 171 1.7 4.3 0.00 0.00 0.00 85 1008.9
20260506092703 60 182 2.6 6.1 0.00 0.00 0.00 85 1008.9
20260506092204 60 200 1.7 5.2 0.00 0.00 0.00 85 1009.0
20260506091204 60 176 2.6 6.1 0.00 0.00 0.00 84 1008.9
20260506083704 61 178 2.6 6.1 0.00 0.00 0.00 83 1009.2
20260506082705 61 195 1.7 5.2 0.00 0.00 0.00 83 1009.2
20260506082204 61 170 2.6 6.1 0.00 0.00 0.00 83 1009.2
20260506081704 61 192 4.3 11.3 0.00 0.00 0.00 83 1009.2
20260506081204 61 184 2.6 6.1 0.00 0.00 0.00 83 1009.2
20260506080203 61 170 2.6 7.8 0.00 0.00 0.00 83 1009.2
20260506073203 61 215 2.6 4.3 0.00 0.00 0.00 82 1009.3
20260506070704 62 207 4.3 10.4 0.00 0.00 0.00 81 1009.1
20260506070205 62 165 2.6 7.8 0.00 0.00 0.00 81 1009.0
20260506062204 62 184 2.6 7.0 0.00 0.00 0.00 79 1009.0
20260506060704 63 180 2.6 10.4 0.00 0.00 0.00 78 1009.1
20260506050704 63 187 2.6 10.4 0.00 0.00 0.00 75 1009.5
20260506044706 64 187 2.6 8.7 0.00 0.00 0.00 74 1009.6
20260506043204 64 174 2.6 10.4 0.00 0.00 0.00 74 1009.5
20260506041704 64 167 5.2 10.4 0.00 0.00 0.00 73 1009.5
20260506041203 64 215 2.6 6.1 0.00 0.00 0.00 73 1009.5